Winston-Salem, NC

6:58 AM EDT on April 26, 2017 (GMT -0400)
Smith Reynolds

Weather History for KINT - March, 2013

Change the Weather History Date:

Friday, March 22, 2013

  Actual Average Record
Temperature  
Mean Temperature 36 °F -  
Max Temperature 50 °F 59 °F 84 °F (1968)
Min Temperature 25 °F 39 °F 18 °F (1986)
Degree Days  
Heating Degree Days 28    
Moisture  
Dew Point 11 °F    
Average Humidity 36    
Maximum Humidity 55    
Minimum Humidity 21    
Precipitation  
Precipitation 0.00 in - - ()
Sea Level Pressure  
Sea Level Pressure 30.02 in    
Wind  
Wind Speed 6 mph (WNW)    
Max Wind Speed 12 mph    
Max Gust Speed 18 mph    
Visibility 10 miles    
Events      
Averages and records for this station are not official NWS values.
T = Trace of Precipitation, MM = Missing Value Source: NWS Daily Summary

Daily Weather History Graph

Daily Weather History Graph

Search for Another Location

Airport or City:

Trip Planner

Search our weather history database for the weather conditions in past years. The results will help you decide how hot, cold, wet, or windy it might be!

Date:

Astronomy

Mar. 22, 2013 Rise Set
Actual Time 7:21 AM EDT 7:34 PM EDT
Civil Twilight 6:55 AM EDT 8:00 PM EDT
Nautical Twilight 6:25 AM EDT 8:30 PM EDT
Astronomical Twilight 5:55 AM EDT 9:00 PM EDT
Moon 3:07 PM EDT (3/22) 4:12 AM EDT (3/22)
Length of Visible Light 13h 04m
Length of Day
12h 13m
Waxing Gibbous, 77% of the Moon is Illuminated
Mar 22
Waxing Gibbous
Mar 27
Full
Apr 3
Last Quarter
Apr 10
New
Apr 18
First Quarter

Hourly Weather History & Observations

Time (EDT) Temp. Windchill Dew Point Humidity Pressure Visibility Wind Dir Wind Speed Gust Speed Precip Events Conditions
12:54 AM 28.0 °F 19.3 °F 10.0 °F 47% 30.01 in 10.0 mi North 9.2 mph - N/A   Clear
1:54 AM 27.0 °F 18.7 °F 10.0 °F 49% 30.01 in 10.0 mi North 8.1 mph - N/A   Clear
2:54 AM 26.1 °F 21.9 °F 10.0 °F 51% 30.00 in 10.0 mi North 3.5 mph - N/A   Clear
3:54 AM 26.1 °F 17.6 °F 10.9 °F 53% 30.00 in 10.0 mi NNW 8.1 mph - N/A   Clear
4:54 AM 25.0 °F 20.7 °F 10.0 °F 53% 30.00 in 10.0 mi NW 3.5 mph - N/A   Clear
5:54 AM 25.0 °F - 10.0 °F 53% 30.02 in 10.0 mi Calm Calm - N/A   Clear
6:54 AM 26.1 °F 21.9 °F 10.0 °F 51% 30.05 in 10.0 mi WNW 3.5 mph - N/A   Clear
7:54 AM 25.0 °F - 10.9 °F 55% 30.08 in 10.0 mi Calm Calm - N/A   Clear
8:54 AM 28.9 °F 21.1 °F 10.9 °F 47% 30.09 in 10.0 mi NW 8.1 mph - N/A   Clear
9:54 AM 32.0 °F 23.6 °F 10.0 °F 40% 30.09 in 10.0 mi NNW 10.4 mph - N/A   Clear
10:54 AM 36.0 °F 30.3 °F 8.1 °F 31% 30.07 in 10.0 mi NW 6.9 mph 17.3 mph N/A   Clear
11:54 AM 39.0 °F 33.4 °F 7.0 °F 27% 30.07 in 10.0 mi West 8.1 mph 18.4 mph N/A   Clear
12:54 PM 42.1 °F 35.7 °F 8.1 °F 25% 30.05 in 10.0 mi West 11.5 mph 17.3 mph N/A   Clear
1:54 PM 44.1 °F 39.5 °F 8.1 °F 23% 30.02 in 10.0 mi SW 8.1 mph - N/A   Clear
2:54 PM 46.0 °F 43.9 °F 8.1 °F 21% 29.99 in 10.0 mi Variable 4.6 mph - N/A   Clear
3:54 PM 46.9 °F - 8.1 °F 21% 29.98 in 10.0 mi West 10.4 mph - N/A   Clear
4:54 PM 48.0 °F - 12.0 °F 24% 29.98 in 10.0 mi SW 5.8 mph - N/A   Clear
5:54 PM 48.9 °F - 10.0 °F 21% 29.97 in 10.0 mi WSW 9.2 mph - N/A   Clear
6:54 PM 48.9 °F - 10.9 °F 22% 29.97 in 10.0 mi SSW 6.9 mph - N/A   Clear
7:54 PM 46.9 °F - 14.0 °F 27% 29.99 in 10.0 mi SSW 4.6 mph - N/A   Clear
8:54 PM 46.0 °F 44.8 °F 14.0 °F 28% 30.00 in 10.0 mi SSW 3.5 mph - N/A   Clear
9:54 PM 44.1 °F - 15.1 °F 31% 30.01 in 10.0 mi Calm Calm - N/A   Clear
10:54 PM 42.1 °F - 16.0 °F 35% 30.01 in 10.0 mi Calm Calm - N/A   Clear
11:54 PM 42.1 °F - 16.0 °F 35% 30.02 in 10.0 mi Calm Calm - N/A   Mostly Cloudy